User: anonymous   Login
Location: Killarney Provincial Park Observatory
(46.0124°N, 81.4000°W)
Time: 18:15:19
(UTC-04:00)
Language:

Iridium 22 - Orbit

View from above orbital plane
View from above orbital plane
View from above satellite
View from above satellite

Ground track
Ground track

The orbit data is extracted from the following two-line orbital elements,

1 24907U 97043E   15240.24997766  .00000262  00000-0  86392-4 0  9999
2 24907 086.4024 171.4863 0002243 081.6583 031.3868 14.34219535943383
Epoch (UTC): 28 August 2015 05:59:58
Eccentricity: 0.0002243
inclination: 86.4024°
perigee height: 776 km
apogee height: 779 km
right ascension of ascending node: 171.4863°
argument of perigee: 81.6583°
revolutions per day: 14.34219535
mean anomaly at epoch: 31.3868°
orbit number at epoch: 94338

The dashed part of the orbit path shows where the satellite is in the earth's shadow,  

DLR